User: anonymous   Login
Location: Unspecified
(0.0000°N, 0.0000°E)
Time: 08:58:07
(UTC+00:00)
Language:

GOES 4 - Orbit

View from above orbital plane
View from above orbital plane
View from above satellite
View from above satellite

Ground track
Ground track

The orbit data is extracted from the following two-line orbital elements,

1 11964U 80074A   19345.65830271 -.00000014 +00000-0 +00000-0 0  9990
2 11964 012.8873 324.9225 0034582 037.7993 152.8485 00.99231632103821
Epoch (UTC): 11 December 2019 15:47:57
Eccentricity: 0.0034582
inclination: 12.8873°
perigee height: 35933 km
apogee height: 36227 km
right ascension of ascending node: 324.9225°
argument of perigee: 37.7993°
revolutions per day: 0.99231632
mean anomaly at epoch: 152.8485°
orbit number at epoch: 10382

The dashed part of the orbit path shows where the satellite is in the earth's shadow,  

DLR